This is the latest recevied weather packets stored in our database for station/object N8SDR. If no packets are shown the sender has not sent any weather packets the latest 1 day(s).
| Time | Temp. | Humidity | Pressure | Rain* | Wind** | Luminosity | Snow |
|---|---|---|---|---|---|---|---|
| 1778023252 | 16.11° C | 99% | 1003.8 hPa | 1.27 mm | 0 m/s | 11 W/m² | - |
| 1778022949 | 16.11° C | 99% | 1003.7 hPa | 0 mm | 0 m/s | 20 W/m² | - |
| 1778022648 | 16.11° C | 99% | 1003.6 hPa | 1.78 mm | 0 m/s | 12 W/m² | - |
| 1778022345 | 16.11° C | 99% | 1003.9 hPa | 3.05 mm | 0 m/s | 17 W/m² | - |
| 1778022041 | 16.11° C | 99% | 1003.9 hPa | 1.27 mm | 0 m/s | 23 W/m² | - |
| 1778021738 | 16.11° C | 99% | 1003.9 hPa | 0 mm | 0.89 m/s, 139° | 28 W/m² | - |
| 1778021434 | 16.11° C | 99% | 1003.7 hPa | 0 mm | 0 m/s | 29 W/m² | - |
| 1778021131 | 16.11° C | 99% | 1004.1 hPa | 0 mm | 0 m/s | 24 W/m² | - |
| 1778020828 | 16.11° C | 99% | 1004 hPa | 0 mm | 0 m/s | 33 W/m² | - |
| 1778020525 | 16.11° C | 99% | 1004 hPa | 1.78 mm | 0.45 m/s, 157° | 45 W/m² | - |
| 1778020221 | 16.11° C | 99% | 1004.1 hPa | 1.78 mm | 0 m/s | 51 W/m² | - |
| 1778019918 | 16.11° C | 99% | 1004.3 hPa | 0 mm | 0.45 m/s, 223° | 44 W/m² | - |
| 1778019614 | 16.11° C | 99% | 1004.2 hPa | 0 mm | 0.45 m/s, 178° | 63 W/m² | - |
| 1778019311 | 16.11° C | 99% | 1004.2 hPa | 1.27 mm | 0 m/s | 66 W/m² | - |
| 1778019008 | 16.11° C | 99% | 1004.5 hPa | 1.27 mm | 0.89 m/s, 187° | 49 W/m² | - |
| 1778018705 | 16.11° C | 99% | 1004.4 hPa | 1.78 mm | 0.45 m/s, 237° | 57 W/m² | - |
| 1778018403 | 16.11° C | 99% | 1004.5 hPa | 1.78 mm | 1.34 m/s, 206° | 39 W/m² | - |
| 1778018101 | 16.11° C | 99% | 1004.6 hPa | 1.27 mm | 0 m/s | 42 W/m² | - |
| 1778017798 | 16.11° C | 99% | 1004.3 hPa | 1.27 mm | 1.79 m/s, 213° | 40 W/m² | - |
| 1778017496 | 16.11° C | 99% | 1004.2 hPa | 3.56 mm | 0.89 m/s, 217° | 46 W/m² | - |
| 1778017193 | 16.11° C | 99% | 1004.3 hPa | 1.78 mm | 0.89 m/s, 214° | 75 W/m² | - |
| 1778016891 | 16.11° C | 99% | 1004.2 hPa | 0 mm | 1.79 m/s, 187° | 65 W/m² | - |
| 1778016587 | 16.11° C | 99% | 1004.5 hPa | 0 mm | 1.34 m/s, 196° | 35 W/m² | - |
| 1778016283 | 16.11° C | 99% | 1004.3 hPa | 3.05 mm | 1.79 m/s, 212° | 67 W/m² | - |
| 1778015980 | 16.11° C | 99% | 1004.2 hPa | 3.05 mm | 0.89 m/s, 189° | 55 W/m² | - |
* Rain latest hour (hover to see other rain measurements)
** Current wind speed in m/s (hover to see current wind gust speed)